Probability
55 26 26 29 10 0 0 0 0 0 0 0 0 0 0 0 0 0 0 6 26 55 71 87 87 90 84 84 87 90 90 90 90 87 90 84 74 68 65 58 58 55 48 42 48 52 48 48 52
23 23 19 16 3 0 0 0 0 0 0 0 0 0 0 3 0 0 3 13 29 45 58 81 90 90 90 87 94 94 94 90 90 94 94 87 81 77 74 61 58 58 52 42 39 42 45 45 52
10 23 23 13 0 0 0 0 0 0 0 0 0 0 0 3 3 0 3 23 26 52 68 87 90 90 90 94 94 94 94 90 94 94 90 81 84 84 74 68 61 55 52 48 42 42 42 42 52
32 19 19 0 0 0 0 0 0 0 0 0 0 0 0 3 3 3 6 10 26 55 71 90 94 94 94 90 90 97 97 94 94 97 90 90 84 77 65 71 68 58 58 55 45 42 48 52 48
26 19 3 0 0 0 0 0 0 0 0 0 0 0 0 3 10 6 13 3 23 52 74 94 97 97 97 94 94 97 100 97 97 97 87 94 87 81 81 74 74 71 61 55 45 45 52 55 45
16 6 0 0 0 0 0 0 0 0 0 0 0 0 0 3 13 19 19 13 26 52 74 94 97 97 97 97 97 94 97 94 97 94 87 87 84 87 77 77 77 68 58 55 55 48 52 52 52
13 0 0 0 0 0 0 0 0 0 0 0 0 0 0 0 6 13 13 13 26 48 71 77 90 94 97 97 94 94 94 94 94 87 84 84 81 74 77 81 74 65 61 52 45 39 48 55 52
10 0 0 0 0 0 0 0 0 0 0 0 0 0 0 0 0 6 10 10 16 29 52 65 71 65 74 90 97 94 94 94 94 87 81 81 84 84 84 90 87 74 61 55 48 45 48 55 45
6 3 0 0 0 0 0 0 0 0 0 0 0 0 0 0 0 0 6 10 13 13 23 16 35 32 42 58 90 90 87 87 81 84 87 71 35 39 68 84 84 71 55 61 58 48 55 52 39
3 3 0 0 0 0 0 0 0 0 0 0 0 0 0 0 0 3 3 6 6 6 16 16 13 16 23 42 45 39 29 35 29 19 35 16 3 16 39 84 90 77 65 65 58 52 45 23 13
3 0 0 0 0 0 0 0 0 0 0 0 0 0 0 0 0 3 3 3 3 10 13 13 10 10 10 6 23 13 13 10 13 16 3 3 3 0 10 10 29 29 42 16 45 39 19 16 3
0 0 0 0 0 0 0 0 0 0 0 0 0 0 3 3 10 6 10 10 6 6 19 10 16 13 13 10 13 13 10 13 13 13 10 3 3 0 3 6 3 3 3 3 3 3 3 6 0
0 0 0 0 0 0 0 0 3 3 3 0 0 3 3 6 3 10 10 6 3 6 26 26 29 19 16 16 23 23 19 13 3 10 10 6 10 6 6 6 3 3 3 10 6 6 3 3 6
0 0 0 0 0 0 0 0 3 0 3 3 6 6 10 6 6 6 16 10 10 19 29 32 32 26 26 23 19 19 19 6 13 13 10 13 10 10 3 3 6 3 3 6 6 6 3 3 10
0 0 0 0 0 0 0 0 3 0 6 6 10 13 13 10 13 13 10 13 13 16 29 26 32 29 32 26 29 26 19 13 13 13 13 13 6 6 6 6 6 6 6 6 6 3 6 3 3
0 0 0 0 0 0 0 0 0 3 3 10 13 13 10 10 6 10 10 6 10 13 26 32 45 29 32 23 26 26 19 13 13 16 13 13 13 10 6 6 6 10 10 10 10 6 3 3 3
0 0 0 0 0 0 0 0 3 3 3 10 10 16 10 3 0 6 6 10 10 16 26 29 29 29 29 32 29 32 16 16 13 16 13 19 23 13 6 6 3 6 3 6 3 3 3 3 3
0 0 0 0 0 0 3 0 0 3 3 10 10 10 10 10 3 6 10 13 23 23 29 35 32 29 26 26 29 32 23 26 23 23 26 19 16 19 13 10 10 6 3 3 6 3 3 3 3
0 0 0 0 0 0 0 0 0 3 3 10 6 13 10 10 6 6 16 26 35 26 29 29 29 29 32 35 32 29 23 26 19 19 16 16 13 16 16 19 13 6 3 3 3 3 3 3 6
0 0 0 3 0 0 0 0 0 3 6 10 10 13 13 6 0 6 23 35 42 45 39 39 32 45 45 39 32 26 23 35 23 23 23 19 16 19 26 13 13 10 6 3 3 3 3 3 6
0 0 0 0 0 0 0 0 0 3 0 10 13 13 10 3 6 6 23 39 45 48 45 55 48 55 55 48 48 48 39 39 32 29 16 19 23 26 23 16 16 13 6 3 3 6 3 6 6
0 0 0 0 0 0 0 0 0 3 3 13 13 13 16 13 6 6 29 42 45 52 52 48 52 55 55 52 48 45 45 32 32 23 29 26 26 29 32 29 35 16 16 6 16 6 6 6 6
0 0 0 0 0 0 0 0 0 0 3 10 13 16 16 19 16 13 29 35 61 58 61 52 58 55 55 55 45 45 42 35 35 29 39 29 29 32 35 35 35 35 23 23 29 19 19 10 10
0 0 0 0 0 0 0 0 0 0 3 10 13 13 19 26 19 16 29 35 58 65 65 68 58 52 52 55 52 48 45 45 45 39 42 35 35 32 29 35 23 26 26 26 26 23 19 13 13
0 0 0 0 0 0 0 0 0 0 0 6 13 16 23 26 26 19 16 32 52 65 71 71 61 55 55 58 58 55 48 45 45 45 45 35 35 35 32 32 29 26 26 29 26 26 16 13 13
0 0 0 0 0 0 0 0 0 3 3 6 10 16 23 23 16 23 23 29 55 65 65 65 65 61 55 65 61 58 55 48 45 45 42 39 35 35 32 32 29 26 23 26 26 19 19 19 10
0 0 0 0 0 0 0 0 3 3 3 6 16 19 23 23 16 23 26 35 48 61 58 65 61 65 61 65 68 58 55 48 48 42 42 39 39 35 29 29 29 26 23 26 23 23 23 16 13
0 0 0 0 0 0 0 0 0 3 3 6 19 26 32 29 19 16 26 32 42 55 55 68 61 61 65 71 68 65 55 48 48 39 35 35 35 32 26 26 26 23 23 19 19 19 16 16 13
0 0 0 0 0 0 0 0 0 3 3 3 19 29 29 32 26 19 26 42 52 55 58 61 65 58 61 68 68 61 52 45 39 35 35 35 32 29 26 26 26 23 23 19 19 19 16 13 10
0 0 0 0 0 0 0 0 3 6 6 10 10 19 35 29 23 19 26 32 42 52 55 61 61 61 61 68 65 61 48 42 42 35 35 29 26 26 26 23 23 19 19 19 19 19 19 13 10
Height
5904 5902 5900 5900 5898 5897 5895 5894 5893 5892 5890 5888 5887 5886 5885 5885 5884 5885 5882 5879 5879 5878 5877 5877 5877 5877 5877 5877 5876 5876 5875 5875 5875 5875 5875 5875 5875 5874 5874 5874 5875 5875 5875 5876 5876 5877 5878 5879 5881
5907 5905 5904 5902 5899 5898 5897 5896 5895 5893 5891 5889 5888 5887 5886 5885 5884 5883 5882 5880 5879 5879 5879 5878 5878 5878 5878 5877 5877 5876 5876 5876 5875 5876 5876 5876 5876 5875 5876 5876 5876 5875 5877 5877 5878 5879 5880 5881 5882
5910 5908 5907 5904 5901 5900 5899 5897 5896 5895 5893 5891 5890 5888 5887 5886 5885 5883 5883 5881 5880 5880 5880 5879 5879 5879 5878 5878 5877 5877 5877 5876 5876 5876 5877 5877 5877 5877 5877 5877 5877 5877 5878 5879 5880 5881 5882 5882 5883
5912 5911 5909 5906 5904 5903 5901 5900 5898 5896 5894 5893 5891 5890 5888 5887 5886 5885 5883 5882 5882 5881 5881 5881 5880 5880 5879 5879 5878 5878 5878 5877 5877 5877 5877 5878 5878 5878 5878 5879 5879 5879 5880 5880 5882 5882 5883 5884 5885
5914 5912 5910 5908 5906 5905 5903 5902 5900 5898 5896 5894 5893 5891 5890 5889 5887 5886 5885 5884 5883 5883 5882 5881 5881 5880 5880 5879 5879 5879 5879 5879 5878 5878 5879 5879 5879 5879 5880 5880 5881 5881 5881 5882 5883 5884 5885 5885 5886
5917 5914 5913 5912 5910 5908 5906 5904 5903 5901 5899 5896 5895 5893 5892 5890 5889 5887 5886 5885 5884 5884 5883 5882 5882 5881 5881 5880 5880 5880 5880 5880 5880 5880 5880 5880 5880 5880 5881 5881 5882 5882 5883 5883 5884 5885 5886 5887 5888
5920 5917 5916 5914 5912 5911 5909 5907 5905 5903 5901 5899 5897 5895 5893 5892 5890 5889 5888 5886 5885 5885 5884 5883 5882 5882 5881 5881 5881 5881 5880 5880 5881 5880 5880 5881 5881 5882 5882 5883 5883 5884 5884 5885 5886 5886 5887 5888 5889
5921 5921 5918 5917 5915 5913 5911 5909 5907 5905 5903 5901 5899 5897 5895 5894 5892 5890 5889 5888 5887 5886 5885 5884 5883 5883 5882 5882 5882 5881 5881 5881 5881 5881 5881 5882 5882 5883 5884 5884 5884 5885 5885 5886 5887 5887 5888 5889 5889
5924 5925 5921 5920 5918 5916 5913 5912 5910 5908 5906 5903 5901 5899 5898 5896 5894 5892 5891 5890 5889 5887 5886 5885 5884 5884 5883 5883 5883 5882 5882 5882 5882 5883 5883 5883 5884 5884 5885 5885 5885 5886 5886 5887 5888 5888 5889 5889 5890
5927 5927 5925 5923 5921 5919 5916 5914 5912 5909 5908 5906 5904 5902 5899 5897 5896 5894 5893 5891 5890 5889 5888 5887 5885 5884 5884 5884 5883 5883 5883 5883 5884 5884 5884 5884 5884 5885 5885 5886 5886 5887 5887 5888 5888 5889 5889 5890 5890
5929 5928 5927 5925 5923 5921 5919 5917 5914 5911 5910 5908 5906 5904 5901 5899 5898 5896 5895 5894 5892 5891 5889 5888 5887 5886 5885 5885 5885 5884 5884 5884 5884 5885 5885 5885 5885 5886 5886 5887 5887 5888 5888 5889 5889 5889 5890 5890 5891
5932 5931 5929 5927 5925 5923 5921 5919 5917 5915 5913 5911 5908 5906 5904 5902 5900 5899 5897 5896 5894 5893 5891 5890 5888 5887 5887 5886 5886 5885 5885 5886 5886 5886 5886 5886 5886 5887 5887 5888 5888 5888 5889 5889 5890 5890 5890 5891 5891
5933 5932 5931 5929 5927 5926 5924 5922 5920 5918 5916 5913 5911 5908 5906 5904 5902 5901 5899 5898 5896 5895 5893 5892 5890 5889 5888 5887 5887 5886 5887 5887 5887 5887 5887 5886 5887 5887 5888 5888 5888 5889 5889 5890 5890 5891 5891 5891 5891
5934 5933 5932 5931 5929 5928 5927 5925 5923 5920 5918 5916 5913 5911 5908 5906 5905 5903 5901 5900 5898 5896 5895 5894 5892 5891 5890 5889 5888 5888 5888 5887 5887 5887 5887 5887 5887 5888 5888 5889 5889 5889 5890 5890 5890 5891 5891 5891 5891
5935 5935 5934 5933 5932 5930 5929 5928 5925 5923 5921 5918 5916 5913 5911 5909 5907 5905 5903 5902 5900 5898 5897 5895 5894 5893 5892 5891 5890 5889 5889 5888 5888 5888 5888 5888 5888 5888 5888 5889 5889 5890 5890 5890 5891 5891 5891 5891 5891
5936 5935 5935 5934 5933 5932 5933 5930 5928 5925 5924 5921 5919 5916 5914 5911 5909 5907 5906 5904 5902 5900 5899 5897 5896 5894 5893 5892 5892 5891 5890 5890 5889 5889 5889 5889 5888 5888 5889 5889 5889 5890 5890 5890 5891 5891 5891 5891 5891
5936 5936 5935 5935 5934 5933 5933 5931 5930 5927 5926 5924 5922 5919 5917 5914 5912 5910 5908 5906 5904 5902 5901 5899 5897 5896 5895 5894 5893 5893 5892 5891 5891 5890 5890 5889 5889 5889 5889 5890 5890 5890 5890 5890 5890 5890 5891 5890 5891
5936 5935 5935 5935 5934 5933 5932 5932 5931 5929 5927 5925 5924 5921 5919 5917 5914 5912 5910 5908 5906 5904 5903 5901 5899 5898 5897 5896 5895 5894 5893 5893 5892 5891 5891 5890 5890 5890 5890 5890 5890 5890 5890 5890 5890 5890 5890 5890 5890
5935 5935 5935 5935 5934 5934 5933 5933 5932 5930 5928 5927 5925 5923 5921 5919 5917 5914 5912 5910 5908 5907 5905 5903 5901 5900 5898 5897 5897 5896 5895 5894 5893 5893 5892 5891 5891 5890 5890 5890 5890 5890 5890 5890 5890 5889 5889 5889 5889
5934 5934 5934 5934 5934 5934 5934 5933 5932 5930 5929 5927 5926 5924 5923 5921 5919 5916 5914 5912 5910 5909 5907 5906 5904 5902 5900 5899 5898 5898 5897 5896 5895 5894 5893 5892 5892 5891 5891 5891 5890 5890 5890 5889 5889 5888 5888 5888 5887
5933 5934 5934 5934 5933 5933 5933 5932 5931 5929 5928 5927 5926 5925 5924 5922 5920 5918 5916 5914 5912 5911 5909 5908 5906 5905 5903 5901 5900 5899 5898 5897 5896 5895 5895 5894 5893 5892 5891 5891 5890 5890 5889 5889 5888 5888 5887 5887 5886
5931 5933 5933 5933 5932 5931 5932 5931 5931 5929 5928 5928 5927 5925 5924 5922 5920 5918 5917 5915 5913 5912 5911 5910 5908 5906 5905 5904 5902 5901 5900 5898 5898 5897 5896 5895 5894 5893 5892 5891 5890 5889 5889 5888 5887 5887 5886 5886 5885
5929 5931 5931 5931 5931 5931 5930 5931 5931 5929 5928 5928 5927 5926 5924 5923 5921 5918 5917 5916 5915 5913 5913 5911 5910 5908 5907 5906 5904 5903 5902 5900 5899 5898 5897 5896 5895 5894 5892 5891 5890 5889 5888 5887 5886 5885 5885 5884 5883
5927 5929 5930 5930 5930 5930 5929 5930 5930 5929 5927 5927 5926 5924 5924 5923 5921 5920 5918 5917 5916 5915 5914 5913 5911 5910 5908 5907 5906 5905 5903 5902 5901 5899 5898 5897 5896 5894 5893 5892 5890 5889 5887 5886 5885 5884 5883 5882 5881
5925 5927 5928 5928 5927 5927 5927 5927 5928 5927 5926 5925 5924 5924 5924 5923 5922 5920 5919 5918 5917 5916 5915 5914 5912 5911 5910 5908 5907 5906 5905 5903 5902 5900 5899 5898 5896 5895 5893 5892 5890 5889 5887 5886 5884 5883 5882 5880 5879
5922 5923 5925 5925 5925 5925 5925 5924 5926 5924 5923 5923 5922 5922 5923 5922 5921 5920 5920 5919 5918 5917 5916 5914 5913 5911 5910 5909 5908 5907 5906 5904 5903 5901 5900 5898 5897 5895 5893 5892 5890 5888 5886 5885 5883 5882 5880 5879 5877
5918 5920 5921 5922 5922 5922 5922 5922 5922 5921 5920 5921 5920 5920 5921 5921 5921 5920 5920 5919 5918 5916 5915 5915 5913 5912 5911 5910 5908 5907 5906 5904 5903 5902 5900 5899 5897 5895 5893 5891 5889 5887 5885 5883 5881 5880 5878 5877 5875
5914 5916 5918 5919 5919 5919 5918 5918 5919 5919 5919 5919 5918 5918 5918 5919 5919 5919 5918 5918 5918 5916 5915 5914 5913 5912 5911 5909 5908 5907 5905 5904 5903 5902 5900 5898 5897 5894 5892 5890 5888 5886 5884 5881 5880 5878 5876 5875 5873
5910 5912 5913 5914 5916 5916 5915 5917 5916 5916 5917 5916 5915 5916 5916 5917 5918 5917 5917 5917 5917 5915 5914 5913 5913 5912 5910 5909 5907 5906 5905 5904 5903 5901 5900 5898 5896 5894 5891 5889 5886 5884 5882 5880 5878 5876 5874 5872 5870
5906 5907 5909 5911 5911 5912 5912 5915 5913 5913 5913 5913 5913 5913 5914 5915 5916 5915 5915 5915 5915 5915 5914 5912 5912 5911 5909 5908 5907 5906 5905 5903 5902 5900 5898 5897 5894 5892 5890 5887 5885 5882 5880 5878 5876 5874 5872 5870 5867
Wind_Speed
21 20 20 19 21 19 18 18 17 15 13 13 13 12 11 9 9 8 7 7 7 7 7 6 6 6 6 6 5 6 5 6 5 5 5 5 6 7 7 8 10 11 12 12 13 13 13 13 13
21 21 21 21 22 20 19 19 18 16 15 14 13 12 11 10 9 8 8 8 8 8 7 7 7 6 6 6 6 6 5 5 6 5 5 6 6 7 8 8 9 11 11 11 12 11 12 12 12
21 22 23 23 22 20 20 19 19 18 16 15 14 12 11 10 10 9 9 9 9 8 8 7 7 7 6 6 6 6 5 6 6 6 6 6 6 7 7 8 9 11 11 11 12 12 11 12 11
22 24 25 24 22 21 20 19 19 18 17 16 16 13 11 11 11 10 10 9 9 8 8 7 7 7 7 7 6 6 6 6 6 7 6 6 6 7 7 7 9 9 10 11 11 11 11 11 10
23 25 25 23 22 22 21 20 20 18 17 17 17 15 13 13 12 12 11 11 10 9 8 7 7 7 7 7 7 6 6 6 6 7 6 6 6 7 7 7 8 9 9 9 9 10 10 10 10
21 23 22 21 22 21 20 20 19 18 18 18 17 16 15 15 14 12 12 11 11 10 9 8 8 7 7 7 6 7 7 7 7 6 6 6 6 7 7 7 8 8 9 9 10 10 10 10 9
21 21 20 20 20 20 20 20 19 19 18 18 18 17 15 15 14 13 13 12 11 11 10 9 8 8 7 7 6 7 6 7 7 7 7 6 6 7 7 8 8 8 8 9 10 10 9 9 9
20 19 19 19 19 20 20 20 19 19 18 18 18 18 16 15 15 14 14 13 12 12 11 10 9 8 7 7 7 7 7 7 7 7 7 7 7 7 7 7 7 7 8 8 8 8 8 8 8
17 17 19 19 19 19 19 19 19 19 18 18 18 17 16 15 15 14 14 14 13 12 11 11 10 9 8 7 7 7 6 6 6 6 7 8 8 7 7 7 7 7 8 8 8 7 8 7 6
16 15 17 19 19 20 19 18 19 20 19 18 18 17 16 16 15 15 14 13 13 13 12 11 10 9 8 8 7 7 7 6 6 6 7 7 7 6 7 6 7 7 7 7 7 7 7 6 6
14 14 16 18 19 20 20 20 20 20 19 18 17 17 17 16 15 15 14 14 13 13 13 12 11 10 9 8 7 7 6 6 7 7 7 6 6 6 6 6 7 7 7 6 6 5 5 5 5
12 13 14 16 19 20 21 20 20 20 19 18 18 17 17 16 15 15 14 14 13 13 13 13 12 11 10 8 7 7 6 6 6 6 6 6 6 5 6 6 7 7 6 6 5 5 4 4 4
10 12 14 16 18 19 20 19 20 20 20 19 19 18 18 17 16 15 14 14 14 13 13 13 13 12 11 9 8 7 7 6 6 5 5 5 5 5 5 6 6 6 5 5 4 4 3 3 3
8 9 11 14 16 18 18 18 20 20 20 20 19 18 18 17 16 15 14 14 14 13 13 13 13 12 11 10 9 8 7 6 6 5 5 5 5 5 5 5 5 5 4 4 3 3 2 2 3
7 7 8 11 14 16 18 19 19 19 19 19 19 18 18 17 16 16 15 14 14 13 13 13 13 12 12 11 10 9 9 8 7 6 6 5 5 5 5 4 4 3 3 3 3 2 2 2 2
6 6 8 9 11 14 15 18 18 18 18 18 18 18 18 18 17 16 16 15 14 14 13 13 13 12 12 11 11 10 10 9 9 7 6 6 5 5 4 4 4 3 3 2 2 1 1 2 2
6 5 6 7 9 11 13 15 16 15 16 17 17 17 17 18 17 17 16 16 15 14 13 13 13 12 12 12 11 11 10 10 9 9 8 6 5 5 4 4 3 3 2 1 1 1 2 2 3
2 3 4 5 7 9 10 11 13 13 14 15 15 15 16 17 17 16 16 16 16 15 14 14 14 13 12 12 11 11 11 10 9 9 8 7 6 5 5 4 3 3 2 0 1 1 2 2 3
2 1 2 3 6 8 8 8 9 10 12 13 14 14 15 16 16 15 15 16 15 15 15 15 14 14 13 11 11 10 10 10 9 9 8 8 7 6 5 4 3 3 2 1 0 1 2 2 3
4 1 1 3 5 7 7 7 8 8 10 11 12 13 13 14 14 14 14 14 15 14 14 14 14 14 14 13 11 11 10 9 9 9 9 8 7 6 6 5 4 3 3 2 1 1 2 3 3
5 4 3 5 7 8 7 5 6 6 7 9 11 11 11 12 13 12 12 13 14 14 14 13 14 14 14 13 13 12 11 9 9 9 9 9 8 7 6 5 5 4 3 3 2 1 2 3 4
7 6 7 9 10 8 7 8 7 5 6 7 8 8 9 11 11 11 10 11 13 13 13 13 13 14 14 13 13 13 13 11 10 9 10 9 9 8 7 6 5 4 3 3 3 3 3 4 5
10 9 9 10 10 11 10 10 8 4 5 5 6 6 8 9 10 10 9 10 12 12 12 12 13 13 13 13 13 13 13 12 11 10 10 9 9 9 9 8 7 6 5 4 4 4 4 5 5
12 11 12 13 13 13 12 11 10 7 5 3 4 4 5 7 9 9 10 10 11 11 11 11 12 12 12 12 12 12 12 12 11 10 10 10 10 9 9 8 8 7 7 5 5 5 5 5 6
15 15 15 15 15 13 13 12 10 8 5 3 2 2 3 4 6 7 8 8 9 9 9 10 10 10 11 11 11 11 11 11 10 10 9 9 10 10 10 9 9 8 7 7 6 6 6 7 7
17 16 16 15 15 14 15 12 9 8 6 4 2 2 1 3 5 6 6 6 7 7 8 8 9 9 9 9 10 10 10 10 10 10 9 9 9 10 10 10 10 10 9 8 7 7 8 8 8
18 18 16 16 15 15 15 13 10 8 7 5 2 2 1 2 3 4 4 4 4 5 6 7 7 7 8 8 8 8 9 9 10 10 10 10 10 10 11 11 11 10 10 9 9 9 9 10 10
18 18 18 17 16 15 15 14 10 8 8 6 3 3 2 1 1 1 2 2 3 4 5 5 5 6 6 6 7 7 8 8 8 9 10 10 11 12 12 12 11 11 11 10 10 10 10 11 11
19 19 20 18 17 16 15 14 11 9 8 6 5 4 2 1 1 1 1 1 2 2 3 3 4 5 6 6 7 8 8 8 8 9 9 10 11 12 13 13 13 13 13 12 12 12 12 12 13
20 20 20 20 19 18 17 15 12 11 10 7 6 5 4 3 3 3 2 2 3 2 2 3 4 5 5 6 6 7 7 8 8 9 10 11 12 13 13 14 14 15 14 14 13 13 13 14 14
Wind_Direction
53 50 51 50 49 45 45 47 47 48 46 43 41 39 39 45 49 52 52 55 56 61 63 70 70 67 64 60 55 61 70 76 83 86 92 98 104 109 112 116 123 129 130 133 136 136 133 134 137
52 47 48 48 45 42 44 44 45 46 46 46 43 40 41 50 53 55 55 53 56 59 62 67 69 67 65 64 67 67 72 68 72 79 91 99 102 109 109 117 123 127 129 135 135 136 135 138 139
53 47 46 45 43 42 42 43 44 48 47 48 45 43 46 52 53 55 56 56 57 58 60 62 66 67 65 63 65 71 73 76 81 84 92 99 103 109 111 110 121 125 129 132 137 138 137 137 138
52 47 42 40 41 43 43 45 46 46 46 48 48 47 51 55 57 58 56 55 55 57 57 61 66 66 64 62 65 69 78 87 89 91 96 102 106 109 113 113 120 126 132 135 135 138 137 138 137
48 44 39 37 41 43 43 46 47 45 44 48 51 51 53 58 62 62 61 58 56 57 57 60 64 64 65 64 70 73 78 86 92 93 98 105 110 115 117 120 126 127 130 135 134 139 136 138 138
44 42 38 39 42 45 46 46 48 49 49 49 50 51 54 58 61 62 62 61 59 58 59 61 64 65 67 69 74 80 82 86 91 98 98 104 107 115 119 119 123 130 127 129 136 138 139 140 139
43 40 38 39 40 43 45 45 48 49 49 49 49 50 51 55 59 60 60 59 60 60 60 60 63 65 68 71 77 84 86 91 93 94 93 102 111 118 117 114 118 128 132 132 136 137 142 142 140
45 38 38 39 39 41 44 46 48 51 49 47 47 49 51 54 57 58 58 58 57 58 59 63 64 64 67 72 76 86 85 90 92 92 99 106 112 115 117 116 118 126 134 135 139 138 142 146 144
48 40 41 43 43 44 45 45 48 51 48 46 46 47 50 54 56 58 58 58 57 57 57 60 61 63 66 71 78 86 91 93 92 91 97 105 109 116 119 123 121 121 125 131 134 140 140 144 145
49 46 46 47 48 49 48 47 48 47 46 45 45 46 47 50 54 58 59 57 57 58 58 59 61 63 67 71 77 82 87 92 94 96 102 106 111 121 127 127 123 121 121 127 128 129 139 144 146
51 52 49 48 47 49 48 47 48 45 42 42 44 46 46 49 51 54 58 59 57 56 57 57 61 64 66 72 76 78 79 88 99 101 102 110 118 121 127 129 128 129 127 125 125 124 135 147 149
51 51 48 46 47 48 47 47 48 46 43 42 44 44 47 50 51 52 53 56 58 58 58 58 58 63 67 73 77 80 80 86 94 99 103 114 122 127 127 131 133 133 129 126 122 121 121 146 149
66 55 49 51 51 48 47 47 48 47 46 45 45 45 47 49 48 48 49 51 55 57 59 60 59 60 63 68 75 83 84 84 88 96 105 114 125 132 127 127 134 132 131 133 134 135 133 141 143
71 57 49 49 53 52 49 46 46 44 45 45 45 45 47 49 48 48 49 51 53 55 56 57 58 57 58 64 71 78 81 84 88 92 102 113 123 133 136 134 131 134 140 147 149 150 151 153 161
74 54 51 53 52 53 50 45 43 43 42 42 42 45 48 48 48 49 50 51 52 54 56 55 56 57 60 64 67 73 74 78 83 86 94 104 116 126 135 137 136 140 148 159 159 165 190 181 177
94 70 62 55 49 49 48 48 44 42 42 43 41 42 47 48 49 51 52 52 52 53 55 56 56 58 61 64 66 69 72 73 76 79 88 94 103 110 122 127 136 148 153 156 158 168 217 216 212
88 72 54 45 38 40 39 41 44 42 38 40 40 40 45 48 50 51 51 52 51 52 53 55 55 57 61 64 67 68 69 72 74 75 80 88 94 104 112 117 115 125 154 171 187 235 226 237 238
100 79 47 30 15 19 24 31 40 39 36 37 38 38 40 44 46 48 50 52 53 53 55 56 56 58 60 63 66 67 67 70 72 73 77 80 87 93 101 108 100 99 108 121 275 247 246 270 263
199 243 14 31 10 3 7 19 29 36 38 39 37 36 38 43 43 44 48 50 52 53 55 57 58 59 60 61 63 65 66 66 67 68 70 73 77 83 84 87 88 86 71 28 343 268 273 274 274
203 207 301 325 332 343 345 357 12 28 34 38 40 38 37 39 41 42 45 48 50 51 54 57 59 59 60 61 61 61 62 63 64 65 64 64 66 70 72 71 70 70 51 30 7 300 293 292 286
221 248 267 290 300 311 316 334 357 17 23 31 39 39 40 41 40 40 45 51 51 52 53 56 57 58 58 60 59 60 60 60 60 60 59 58 61 60 61 59 51 46 32 14 350 314 300 291 290
224 234 245 272 284 295 312 322 337 1 12 18 31 37 42 43 40 44 48 51 54 53 54 56 57 56 56 59 61 60 57 58 59 56 54 56 58 54 49 44 33 26 18 3 344 320 305 292 287
225 233 243 256 266 278 292 296 305 327 358 6 25 35 38 42 44 49 56 57 55 52 53 55 56 57 58 59 58 58 56 56 56 55 54 52 51 47 44 40 31 21 8 353 347 339 323 305 296
216 227 238 243 253 263 276 284 295 300 321 340 9 36 34 42 50 51 55 59 56 53 50 51 56 58 59 58 56 56 54 53 52 52 51 51 48 42 37 32 25 20 12 1 351 341 333 322 305
213 225 234 238 245 262 273 281 287 283 293 297 332 12 26 41 51 46 46 56 57 55 50 51 54 55 57 57 55 52 51 48 45 43 44 43 40 34 29 24 19 16 12 6 356 344 333 326 318
215 225 234 241 245 262 278 284 288 281 277 262 309 342 36 52 57 51 52 56 57 54 48 47 49 50 52 52 51 49 46 42 38 38 35 32 27 23 21 17 13 9 5 359 352 346 339 331 325
218 226 237 243 245 260 271 286 287 284 274 266 277 288 279 72 63 51 50 53 51 49 48 44 42 42 42 43 43 42 38 36 34 31 27 24 19 14 11 7 2 357 352 344 339 339 338 334 326
221 224 232 237 246 256 265 281 281 272 282 285 270 283 279 129 70 30 39 34 25 44 54 44 34 33 33 33 34 31 29 26 25 22 19 15 11 7 4 2 359 355 349 340 332 331 330 327 323
221 224 231 238 248 257 264 268 267 260 272 281 269 269 256 199 268 299 284 324 354 32 56 45 21 19 19 16 18 19 18 16 13 11 8 5 2 360 357 356 354 350 348 345 336 329 326 323 320
223 228 233 237 245 251 260 266 266 264 271 274 279 283 258 261 278 289 342 335 337 348 360 6 7 5 4 358 360 3 358 357 357 356 355 353 351 350 350 350 350 347 344 340 336 330 327 323 320